Location: Altleiningen
(49.5078°N, 8.0741°E)
Time: 05:17:02
(UTC+00:00)

Cosmos 2292 Rocket - Pass Details

Date: 14 June 2025
Orbit: 370 x 1263 km, 83.0° (Epoch: 12 July)

Event Time Altitude Azimuth Distance (km) Brightness Sun altitude
Exits shadow 22:18:58 39° 190° (S) 583 3.0 -15.6°
Maximum altitude 22:19:55 88° 275° (W) 381 2.4 -15.6°
Drops below altitude 10° 22:22:50 10° 9° (N) 1,387 6.4 -15.7°
Sets 22:24:49 0° 9° (N) 2,267 7.7 -15.8°
